Time,TemperatureF,DewpointF,PressureIn,WindDirection,WindDirectionDegrees,WindSpeedMPH,WindSpeedGustMPH,Humidity,HourlyPrecipIn,Conditions,Clouds,dailyrainin,SoftwareType,DateUTC
2013-02-16 00:00:00,53.4,39.4,29.65,NW,315,0.0,0.0,59,0.00,,,0.00,meteohub,2013-02-16 08:00:00,
2013-02-16 00:05:00,53.4,39.4,29.66,NW,315,0.0,0.0,59,0.00,,,0.00,meteohub,2013-02-16 08:05:00,
2013-02-16 00:10:00,53.2,39.2,29.65,West,270,0.0,0.0,59,0.00,,,0.00,meteohub,2013-02-16 08:10:00,
2013-02-16 00:15:00,53.2,39.2,29.65,NW,315,0.0,0.0,59,0.00,,,0.00,meteohub,2013-02-16 08:15:00,
2013-02-16 00:20:00,53.2,39.2,29.65,NW,315,0.0,0.0,59,0.00,,,0.00,meteohub,2013-02-16 08:20:00,
2013-02-16 00:25:00,53.1,39.2,29.65,NW,315,0.0,0.0,59,0.00,,,0.00,meteohub,2013-02-16 08:25:00,
2013-02-16 00:30:00,53.1,39.2,29.65,NW,315,0.0,0.0,59,0.00,,,0.00,meteohub,2013-02-16 08:30:00,
2013-02-16 00:35:00,53.1,39.2,29.65,SW,225,0.0,0.0,59,0.00,,,0.00,meteohub,2013-02-16 08:35:00,
2013-02-16 00:40:00,53.1,38.7,29.65,NW,315,0.0,0.0,58,0.00,,,0.00,meteohub,2013-02-16 08:40:00,
2013-02-16 00:45:00,53.1,38.7,29.65,NW,315,0.0,0.0,58,0.00,,,0.00,meteohub,2013-02-16 08:45:00,
2013-02-16 00:50:00,52.9,38.5,29.65,West,270,0.0,0.0,58,0.00,,,0.00,meteohub,2013-02-16 08:50:00,
2013-02-16 00:55:00,52.9,38.5,29.65,West,270,0.0,0.0,58,0.00,,,0.00,meteohub,2013-02-16 08:55:00,
2013-02-16 01:00:00,52.9,39.0,29.65,NW,315,0.0,0.0,59,0.00,,,0.00,meteohub,2013-02-16 09:00:00,
2013-02-16 01:05:00,52.9,39.0,29.65,West,270,0.0,0.0,59,0.00,,,0.00,meteohub,2013-02-16 09:05:00,
2013-02-16 01:10:00,52.9,39.0,29.65,West,270,0.0,0.0,59,0.00,,,0.00,meteohub,2013-02-16 09:10:00,
2013-02-16 01:16:00,52.9,39.0,29.65,SW,225,0.0,0.0,59,0.00,,,0.00,meteohub,2013-02-16 09:16:00,
2013-02-16 01:21:00,52.7,38.8,29.65,SW,225,0.0,0.0,59,0.00,,,0.00,meteohub,2013-02-16 09:21:00,
2013-02-16 01:26:00,52.5,38.7,29.65,West,270,0.0,0.0,59,0.00,,,0.00,meteohub,2013-02-16 09:26:00,
2013-02-16 01:31:00,52.3,38.5,29.65,NW,315,0.0,0.0,59,0.00,,,0.00,meteohub,2013-02-16 09:31:00,
2013-02-16 01:36:00,52.3,38.5,29.65,NW,315,0.0,0.0,59,0.00,,,0.00,meteohub,2013-02-16 09:36:00,
2013-02-16 01:41:00,52.2,38.3,29.65,NW,315,0.0,0.0,59,0.00,,,0.00,meteohub,2013-02-16 09:41:00,
2013-02-16 01:46:00,52.3,38.5,29.65,NW,315,0.0,0.0,59,0.00,,,0.00,meteohub,2013-02-16 09:46:00,
2013-02-16 01:51:00,52.3,38.5,29.65,NW,315,0.0,0.0,59,0.00,,,0.00,meteohub,2013-02-16 09:51:00,
2013-02-16 01:56:00,52.3,38.5,29.64,NW,315,0.0,0.0,59,0.00,,,0.00,meteohub,2013-02-16 09:56:00,
2013-02-16 02:01:00,52.3,38.5,29.64,NW,315,0.0,0.0,59,0.00,,,0.00,meteohub,2013-02-16 10:01:00,
2013-02-16 02:06:00,52.3,38.5,29.64,NW,315,0.0,0.0,59,0.00,,,0.00,meteohub,2013-02-16 10:06:00,
2013-02-16 02:11:00,52.7,38.3,29.64,West,270,0.0,0.0,58,0.00,,,0.00,meteohub,2013-02-16 10:11:00,
2013-02-16 02:16:00,52.7,38.3,29.64,West,270,0.0,0.0,58,0.00,,,0.00,meteohub,2013-02-16 10:16:00,
2013-02-16 02:21:00,52.7,38.3,29.64,NW,315,0.0,0.0,58,0.00,,,0.00,meteohub,2013-02-16 10:21:00,
2013-02-16 02:26:00,52.3,38.5,29.64,WSW,248,0.0,0.0,59,0.00,,,0.00,meteohub,2013-02-16 10:26:00,
2013-02-16 02:32:00,52.2,38.3,29.63,NW,315,0.0,0.0,59,0.00,,,0.00,meteohub,2013-02-16 10:32:00,
2013-02-16 02:37:00,52.2,37.8,29.63,SW,225,0.0,0.0,58,0.00,,,0.00,meteohub,2013-02-16 10:37:00,
2013-02-16 02:42:00,52.3,37.9,29.63,West,270,0.0,0.0,58,0.00,,,0.00,meteohub,2013-02-16 10:42:00,
2013-02-16 02:47:00,52.3,37.9,29.63,West,270,0.0,0.0,58,0.00,,,0.00,meteohub,2013-02-16 10:47:00,
2013-02-16 02:52:00,52.3,37.9,29.62,West,270,0.0,1.0,58,0.00,,,0.00,meteohub,2013-02-16 10:52:00,
2013-02-16 02:57:00,52.2,37.8,29.62,West,270,0.0,1.0,58,0.00,,,0.00,meteohub,2013-02-16 10:57:00,
2013-02-16 03:02:00,52.2,37.8,29.62,West,270,0.0,1.0,58,0.00,,,0.00,meteohub,2013-02-16 11:02:00,
2013-02-16 03:07:00,52.3,37.6,29.62,West,270,0.0,0.0,57,0.00,,,0.00,meteohub,2013-02-16 11:07:00,
2013-02-16 03:12:00,52.5,37.8,29.62,West,270,0.0,0.0,57,0.00,,,0.00,meteohub,2013-02-16 11:12:00,
2013-02-16 03:17:00,52.5,37.8,29.62,West,270,0.0,0.0,57,0.00,,,0.00,meteohub,2013-02-16 11:17:00,
2013-02-16 03:22:00,52.3,37.0,29.61,West,270,0.0,1.0,56,0.00,,,0.00,meteohub,2013-02-16 11:22:00,
2013-02-16 03:27:00,52.3,37.0,29.61,NW,315,0.0,1.0,56,0.00,,,0.00,meteohub,2013-02-16 11:27:00,
2013-02-16 03:32:00,52.3,37.0,29.61,West,270,0.0,2.0,56,0.00,,,0.00,meteohub,2013-02-16 11:32:00,
2013-02-16 03:37:00,52.2,36.9,29.61,West,270,1.0,2.0,56,0.00,,,0.00,meteohub,2013-02-16 11:37:00,
2013-02-16 03:42:00,52.2,36.9,29.61,West,270,0.0,2.0,56,0.00,,,0.00,meteohub,2013-02-16 11:42:00,
2013-02-16 03:47:00,52.3,37.0,29.61,WSW,248,0.0,2.0,56,0.00,,,0.00,meteohub,2013-02-16 11:47:00,
2013-02-16 03:52:00,52.3,37.0,29.61,SW,225,0.0,1.0,56,0.00,,,0.00,meteohub,2013-02-16 11:52:00,
2013-02-16 03:57:00,52.3,37.0,29.60,West,270,0.0,1.0,56,0.00,,,0.00,meteohub,2013-02-16 11:57:00,
2013-02-16 04:02:00,52.2,36.9,29.61,SW,225,0.0,0.0,56,0.00,,,0.00,meteohub,2013-02-16 12:02:00,
2013-02-16 04:07:00,52.2,36.9,29.60,SW,225,0.0,0.0,56,0.00,,,0.00,meteohub,2013-02-16 12:07:00,
2013-02-16 04:12:00,52.2,36.9,29.60,West,270,0.0,0.0,56,0.00,,,0.00,meteohub,2013-02-16 12:12:00,
2013-02-16 04:17:00,52.3,37.0,29.60,West,270,0.0,0.0,56,0.00,,,0.00,meteohub,2013-02-16 12:17:00,
2013-02-16 04:22:00,52.3,36.7,29.60,West,270,0.0,0.0,55,0.00,,,0.00,meteohub,2013-02-16 12:22:00,
2013-02-16 04:27:00,52.3,36.7,29.60,NW,315,0.0,0.0,55,0.00,,,0.00,meteohub,2013-02-16 12:27:00,
2013-02-16 04:32:00,52.2,36.9,29.60,NW,315,0.0,0.0,56,0.00,,,0.00,meteohub,2013-02-16 12:32:00,
2013-02-16 04:37:00,52.2,36.9,29.60,West,270,0.0,0.0,56,0.00,,,0.00,meteohub,2013-02-16 12:37:00,
2013-02-16 04:42:00,52.2,36.9,29.60,NW,315,0.0,2.0,56,0.00,,,0.00,meteohub,2013-02-16 12:42:00,
2013-02-16 04:47:00,52.2,36.9,29.60,West,270,0.0,2.0,56,0.00,,,0.00,meteohub,2013-02-16 12:47:00,
2013-02-16 04:52:00,52.2,36.5,29.60,NW,315,0.0,2.0,55,0.00,,,0.00,meteohub,2013-02-16 12:52:00,
2013-02-16 04:57:00,52.2,36.5,29.60,West,270,0.0,2.0,55,0.00,,,0.00,meteohub,2013-02-16 12:57:00,
2013-02-16 05:02:00,52.2,36.5,29.60,NW,315,0.0,0.0,55,0.00,,,0.00,meteohub,2013-02-16 13:02:00,
2013-02-16 05:07:00,52.0,36.3,29.60,West,270,0.0,0.0,55,0.00,,,0.00,meteohub,2013-02-16 13:07:00,
2013-02-16 05:12:00,51.8,36.7,29.60,NW,315,0.0,0.0,56,0.00,,,0.00,meteohub,2013-02-16 13:12:00,
2013-02-16 05:17:00,51.8,36.7,29.59,SW,225,0.0,0.0,56,0.00,,,0.00,meteohub,2013-02-16 13:17:00,
2013-02-16 05:22:00,51.6,36.9,29.60,West,270,1.0,1.0,57,0.00,,,0.00,meteohub,2013-02-16 13:22:00,
2013-02-16 05:27:00,51.4,36.7,29.60,West,270,0.0,1.0,57,0.00,,,0.00,meteohub,2013-02-16 13:27:00,
2013-02-16 05:32:00,51.4,36.7,29.60,West,270,0.0,1.0,57,0.00,,,0.00,meteohub,2013-02-16 13:32:00,
2013-02-16 05:37:00,51.4,36.7,29.60,NW,315,0.0,1.0,57,0.00,,,0.00,meteohub,2013-02-16 13:37:00,
2013-02-16 05:42:00,51.4,36.7,29.60,West,270,0.0,0.0,57,0.00,,,0.00,meteohub,2013-02-16 13:42:00,
2013-02-16 05:47:00,51.3,37.0,29.60,NW,315,0.0,0.0,58,0.00,,,0.00,meteohub,2013-02-16 13:47:00,
2013-02-16 05:52:00,50.9,36.7,29.60,West,270,0.0,1.0,58,0.00,,,0.00,meteohub,2013-02-16 13:52:00,
2013-02-16 05:57:00,50.5,36.7,29.60,West,270,0.0,1.0,59,0.00,,,0.00,meteohub,2013-02-16 13:57:00,
2013-02-16 06:02:00,50.5,36.7,29.60,SW,225,0.0,1.0,59,0.00,,,0.00,meteohub,2013-02-16 14:02:00,
2013-02-16 06:07:00,50.5,36.7,29.60,SW,225,0.0,0.0,59,0.00,,,0.00,meteohub,2013-02-16 14:07:00,
2013-02-16 06:12:00,50.4,36.5,29.60,West,270,0.0,0.0,59,0.00,,,0.00,meteohub,2013-02-16 14:12:00,
2013-02-16 06:17:00,50.5,36.7,29.60,West,270,0.0,0.0,59,0.00,,,0.00,meteohub,2013-02-16 14:17:00,
2013-02-16 06:22:00,50.5,36.7,29.60,West,270,0.0,0.0,59,0.00,,,0.00,meteohub,2013-02-16 14:22:00,
2013-02-16 06:27:00,50.5,36.7,29.60,SW,225,0.0,0.0,59,0.00,,,0.00,meteohub,2013-02-16 14:27:00,
2013-02-16 06:32:00,50.5,36.7,29.60,West,270,0.0,0.0,59,0.00,,,0.00,meteohub,2013-02-16 14:32:00,
2013-02-16 06:37:00,50.5,36.7,29.60,NW,315,0.0,1.0,59,0.00,,,0.00,meteohub,2013-02-16 14:37:00,
2013-02-16 06:42:00,50.4,36.5,29.60,SW,225,0.0,1.0,59,0.00,,,0.00,meteohub,2013-02-16 14:42:00,
2013-02-16 06:47:00,50.4,36.1,29.60,West,270,0.0,1.0,58,0.00,,,0.00,meteohub,2013-02-16 14:47:00,
2013-02-16 06:52:00,50.4,36.1,29.60,NW,315,0.0,0.0,58,0.00,,,0.00,meteohub,2013-02-16 14:52:00,
2013-02-16 06:57:00,50.5,36.3,29.60,NW,315,0.0,0.0,58,0.00,,,0.00,meteohub,2013-02-16 14:57:00,
2013-02-16 07:02:00,50.5,36.3,29.60,NW,315,0.0,0.0,58,0.00,,,0.00,meteohub,2013-02-16 15:02:00,
2013-02-16 07:07:00,50.5,36.3,29.60,West,270,0.0,1.0,58,0.00,,,0.00,meteohub,2013-02-16 15:07:00,
2013-02-16 07:12:00,50.5,36.3,29.60,WSW,248,0.0,1.0,58,0.00,,,0.00,meteohub,2013-02-16 15:12:00,
2013-02-16 07:17:00,50.5,36.3,29.60,West,270,0.0,1.0,58,0.00,,,0.00,meteohub,2013-02-16 15:17:00,
2013-02-16 07:22:00,50.5,36.0,29.60,West,270,0.0,0.0,57,0.00,,,0.00,meteohub,2013-02-16 15:22:00,
2013-02-16 07:27:00,50.7,36.0,29.61,West,270,0.0,0.0,57,0.00,,,0.00,meteohub,2013-02-16 15:27:00,
2013-02-16 07:32:00,50.7,36.0,29.60,SW,225,0.0,0.0,57,0.00,,,0.00,meteohub,2013-02-16 15:32:00,
2013-02-16 07:37:00,50.7,36.5,29.60,SW,225,0.0,0.0,58,0.00,,,0.00,meteohub,2013-02-16 15:37:00,
2013-02-16 07:42:00,50.7,36.5,29.61,West,270,0.0,0.0,58,0.00,,,0.00,meteohub,2013-02-16 15:42:00,
2013-02-16 07:47:00,50.9,36.1,29.60,NW,315,0.0,0.0,57,0.00,,,0.00,meteohub,2013-02-16 15:47:00,
2013-02-16 07:52:00,51.3,36.5,29.60,West,270,0.0,0.0,57,0.00,,,0.00,meteohub,2013-02-16 15:52:00,
2013-02-16 07:57:00,51.6,36.5,29.61,West,270,0.0,0.0,56,0.00,,,0.00,meteohub,2013-02-16 15:57:00,
2013-02-16 08:02:00,51.8,36.1,29.60,NW,315,0.0,0.0,55,0.00,,,0.00,meteohub,2013-02-16 16:02:00,
2013-02-16 08:07:00,51.8,36.1,29.60,NW,315,0.0,0.0,55,0.00,,,0.00,meteohub,2013-02-16 16:07:00,
2013-02-16 08:12:00,52.3,36.7,29.61,West,270,0.0,0.0,55,0.00,,,0.00,meteohub,2013-02-16 16:12:00,
2013-02-16 08:17:00,52.7,37.0,29.61,West,270,0.0,0.0,55,0.00,,,0.00,meteohub,2013-02-16 16:17:00,
2013-02-16 08:22:00,52.7,37.0,29.61,NW,315,0.0,0.0,55,0.00,,,0.00,meteohub,2013-02-16 16:22:00,
2013-02-16 08:27:00,52.7,37.0,29.61,West,270,0.0,0.0,55,0.00,,,0.00,meteohub,2013-02-16 16:27:00,
2013-02-16 08:32:00,52.9,37.2,29.62,West,270,0.0,0.0,55,0.00,,,0.00,meteohub,2013-02-16 16:32:00,
2013-02-16 08:37:00,52.9,37.6,29.61,WSW,248,0.0,0.0,56,0.00,,,0.00,meteohub,2013-02-16 16:37:00,
2013-02-16 08:42:00,52.9,37.2,29.61,West,270,0.0,0.0,55,0.00,,,0.00,meteohub,2013-02-16 16:42:00,
2013-02-16 08:47:00,53.1,37.8,29.61,SW,225,0.0,0.0,56,0.00,,,0.00,meteohub,2013-02-16 16:47:00,
2013-02-16 08:52:00,53.2,37.9,29.61,SW,225,0.0,0.0,56,0.00,,,0.00,meteohub,2013-02-16 16:52:00,
2013-02-16 08:57:00,53.4,37.6,29.61,SW,225,0.0,0.0,55,0.00,,,0.00,meteohub,2013-02-16 16:57:00,
2013-02-16 09:02:00,53.6,37.4,29.61,NW,315,0.0,0.0,54,0.00,,,0.00,meteohub,2013-02-16 17:02:00,
2013-02-16 09:07:00,54.0,38.1,29.61,West,270,0.0,0.0,55,0.00,,,0.00,meteohub,2013-02-16 17:07:00,
2013-02-16 09:12:00,54.3,38.5,29.61,SW,225,0.0,0.0,55,0.00,,,0.00,meteohub,2013-02-16 17:12:00,
2013-02-16 09:17:00,54.9,39.0,29.60,NW,315,0.0,0.0,55,0.00,,,0.00,meteohub,2013-02-16 17:17:00,
2013-02-16 09:22:00,55.2,39.4,29.60,West,270,0.0,0.0,55,0.00,,,0.00,meteohub,2013-02-16 17:22:00,
2013-02-16 09:27:00,55.8,39.9,29.60,NW,315,0.0,0.0,55,0.00,,,0.00,meteohub,2013-02-16 17:27:00,
2013-02-16 09:32:00,56.3,40.3,29.60,NW,315,0.0,0.0,55,0.00,,,0.00,meteohub,2013-02-16 17:32:00,
2013-02-16 09:37:00,56.7,41.2,29.61,NW,315,0.0,0.0,56,0.00,,,0.00,meteohub,2013-02-16 17:37:00,
2013-02-16 09:42:00,57.4,41.4,29.60,West,270,0.0,0.0,55,0.00,,,0.00,meteohub,2013-02-16 17:42:00,
2013-02-16 09:47:00,58.1,41.5,29.60,NW,315,0.0,0.0,54,0.00,,,0.00,meteohub,2013-02-16 17:47:00,
2013-02-16 09:52:00,58.6,42.1,29.60,SW,225,0.0,0.0,54,0.00,,,0.00,meteohub,2013-02-16 17:52:00,
2013-02-16 09:57:00,59.4,42.3,29.60,SW,225,0.0,0.0,53,0.00,,,0.00,meteohub,2013-02-16 17:57:00,
2013-02-16 10:02:00,59.9,42.8,29.60,NW,315,0.0,0.0,53,0.00,,,0.00,meteohub,2013-02-16 18:02:00,
2013-02-16 10:07:00,60.6,43.3,29.60,NW,315,0.0,0.0,53,0.00,,,0.00,meteohub,2013-02-16 18:07:00,
2013-02-16 10:12:00,61.3,44.1,29.60,NW,315,0.0,0.0,53,0.00,,,0.00,meteohub,2013-02-16 18:12:00,
2013-02-16 10:17:00,61.9,44.6,29.60,NW,315,0.0,1.0,53,0.00,,,0.00,meteohub,2013-02-16 18:17:00,
2013-02-16 10:22:00,62.6,44.8,29.60,NW,315,0.0,1.0,52,0.00,,,0.00,meteohub,2013-02-16 18:22:00,
2013-02-16 10:27:00,63.1,44.8,29.60,NW,315,0.0,1.0,51,0.00,,,0.00,meteohub,2013-02-16 18:27:00,
2013-02-16 10:32:00,63.9,45.9,29.60,NW,315,0.0,0.0,52,0.00,,,0.00,meteohub,2013-02-16 18:32:00,
2013-02-16 10:37:00,64.4,46.4,29.60,NW,315,0.0,0.0,52,0.00,,,0.00,meteohub,2013-02-16 18:37:00,
2013-02-16 10:42:00,64.8,46.8,29.60,NW,315,0.0,0.0,52,0.00,,,0.00,meteohub,2013-02-16 18:42:00,
2013-02-16 10:47:00,65.5,46.9,29.59,NW,315,0.0,0.0,51,0.00,,,0.00,meteohub,2013-02-16 18:47:00,
2013-02-16 10:52:00,66.6,47.3,29.59,NW,315,0.0,0.0,50,0.00,,,0.00,meteohub,2013-02-16 18:52:00,
2013-02-16 10:57:00,67.6,48.4,29.59,NW,315,0.0,0.0,50,0.00,,,0.00,meteohub,2013-02-16 18:57:00,
2013-02-16 11:02:00,68.7,49.3,29.59,NW,315,0.0,0.0,50,0.00,,,0.00,meteohub,2013-02-16 19:02:00,
2013-02-16 11:07:00,70.3,49.6,29.59,NW,315,0.0,0.0,48,0.00,,,0.00,meteohub,2013-02-16 19:07:00,
2013-02-16 11:12:00,71.6,47.3,29.59,NW,315,0.0,0.0,42,0.00,,,0.00,meteohub,2013-02-16 19:12:00,
2013-02-16 11:17:00,72.7,46.2,29.59,East,90,0.0,0.0,39,0.00,,,0.00,meteohub,2013-02-16 19:17:00,
2013-02-16 11:22:00,73.9,48.0,29.59,SSE,158,0.0,0.0,40,0.00,,,0.00,meteohub,2013-02-16 19:22:00,
2013-02-16 11:27:00,75.0,46.9,29.58,SE,135,0.0,0.0,37,0.00,,,0.00,meteohub,2013-02-16 19:27:00,
2013-02-16 11:32:00,75.9,43.9,29.57,North,0,0.0,0.0,32,0.00,,,0.00,meteohub,2013-02-16 19:32:00,
2013-02-16 11:37:00,76.8,46.4,29.57,SE,135,0.0,0.0,34,0.00,,,0.00,meteohub,2013-02-16 19:37:00,
2013-02-16 11:42:00,77.4,44.4,29.57,SE,135,0.0,0.0,31,0.00,,,0.00,meteohub,2013-02-16 19:42:00,
2013-02-16 11:47:00,77.7,42.1,29.57,SSE,158,0.0,0.0,28,0.00,,,0.00,meteohub,2013-02-16 19:47:00,
2013-02-16 11:52:00,77.5,41.9,29.57,East,90,0.0,0.0,28,0.00,,,0.00,meteohub,2013-02-16 19:52:00,
2013-02-16 11:57:00,77.0,40.5,29.57,East,90,0.0,0.0,27,0.00,,,0.00,meteohub,2013-02-16 19:57:00,
2013-02-16 12:02:00,76.8,40.3,29.56,East,90,0.0,0.0,27,0.00,,,0.00,meteohub,2013-02-16 20:02:00,
2013-02-16 12:07:00,77.2,40.6,29.56,East,90,0.0,0.0,27,0.00,,,0.00,meteohub,2013-02-16 20:07:00,
2013-02-16 12:12:00,78.1,41.4,29.56,East,90,0.0,0.0,27,0.00,,,0.00,meteohub,2013-02-16 20:12:00,
2013-02-16 12:17:00,78.8,39.0,29.55,SE,135,0.0,0.0,24,0.00,,,0.00,meteohub,2013-02-16 20:17:00,
2013-02-16 12:22:00,79.9,38.8,29.55,South,180,0.0,0.0,23,0.00,,,0.00,meteohub,2013-02-16 20:22:00,
2013-02-16 12:27:00,79.9,36.5,29.54,East,90,0.0,0.0,21,0.00,,,0.00,meteohub,2013-02-16 20:27:00,
2013-02-16 12:32:00,79.3,34.7,29.54,East,90,0.0,0.0,20,0.00,,,0.00,meteohub,2013-02-16 20:32:00,
2013-02-16 12:37:00,78.6,36.7,29.54,SE,135,0.0,0.0,22,0.00,,,0.00,meteohub,2013-02-16 20:37:00,
2013-02-16 12:42:00,77.5,35.8,29.53,SE,135,0.0,0.0,22,0.00,,,0.00,meteohub,2013-02-16 20:42:00,
2013-02-16 12:47:00,76.6,39.2,29.53,East,90,0.0,0.0,26,0.00,,,0.00,meteohub,2013-02-16 20:47:00,
2013-02-16 12:52:00,76.6,39.2,29.53,SE,135,0.0,0.0,26,0.00,,,0.00,meteohub,2013-02-16 20:52:00,
2013-02-16 12:57:00,76.5,37.9,29.52,SE,135,0.0,0.0,25,0.00,,,0.00,meteohub,2013-02-16 20:57:00,
2013-02-16 13:02:00,76.3,36.9,29.52,East,90,0.0,0.0,24,0.00,,,0.00,meteohub,2013-02-16 21:02:00,
2013-02-16 13:07:00,76.1,38.7,29.52,South,180,0.0,0.0,26,0.00,,,0.00,meteohub,2013-02-16 21:07:00,
2013-02-16 13:12:00,76.1,36.7,29.52,SE,135,0.0,0.0,24,0.00,,,0.00,meteohub,2013-02-16 21:12:00,
2013-02-16 13:17:00,76.1,36.7,29.52,South,180,0.0,0.0,24,0.00,,,0.00,meteohub,2013-02-16 21:17:00,
2013-02-16 13:22:00,76.3,36.9,29.52,SE,135,0.0,0.0,24,0.00,,,0.00,meteohub,2013-02-16 21:22:00,
2013-02-16 13:27:00,76.5,37.0,29.51,South,180,0.0,0.0,24,0.00,,,0.00,meteohub,2013-02-16 21:27:00,
2013-02-16 13:32:00,77.0,37.4,29.51,SE,135,0.0,0.0,24,0.00,,,0.00,meteohub,2013-02-16 21:32:00,
2013-02-16 13:37:00,77.5,37.9,29.51,East,90,0.0,0.0,24,0.00,,,0.00,meteohub,2013-02-16 21:37:00,
2013-02-16 13:42:00,77.5,35.8,29.50,SE,135,0.0,0.0,22,0.00,,,0.00,meteohub,2013-02-16 21:42:00,
2013-02-16 13:47:00,76.8,36.1,29.50,SE,135,0.0,0.0,23,0.00,,,0.00,meteohub,2013-02-16 21:47:00,
2013-02-16 13:52:00,76.6,37.2,29.50,SE,135,0.0,0.0,24,0.00,,,0.00,meteohub,2013-02-16 21:52:00,
2013-02-16 13:57:00,75.9,35.4,29.49,West,270,0.0,0.0,23,0.00,,,0.00,meteohub,2013-02-16 21:57:00,
2013-02-16 14:02:00,76.3,35.8,29.49,South,180,0.0,0.0,23,0.00,,,0.00,meteohub,2013-02-16 22:02:00,
2013-02-16 14:07:00,77.5,35.8,29.49,East,90,0.0,0.0,22,0.00,,,0.00,meteohub,2013-02-16 22:07:00,
2013-02-16 14:12:00,78.3,35.1,29.49,South,180,0.0,0.0,21,0.00,,,0.00,meteohub,2013-02-16 22:12:00,
2013-02-16 14:17:00,77.9,34.9,29.48,East,90,0.0,0.0,21,0.00,,,0.00,meteohub,2013-02-16 22:17:00,
2013-02-16 14:22:00,76.8,35.1,29.48,SE,135,0.0,0.0,22,0.00,,,0.00,meteohub,2013-02-16 22:22:00,
2013-02-16 14:27:00,76.1,35.6,29.48,SSE,158,0.0,0.0,23,0.00,,,0.00,meteohub,2013-02-16 22:27:00,
2013-02-16 14:32:00,76.1,35.6,29.48,East,90,0.0,0.0,23,0.00,,,0.00,meteohub,2013-02-16 22:32:00,
2013-02-16 14:37:00,76.1,35.6,29.48,East,90,0.0,0.0,23,0.00,,,0.00,meteohub,2013-02-16 22:37:00,
2013-02-16 14:42:00,75.4,36.1,29.47,East,90,0.0,0.0,24,0.00,,,0.00,meteohub,2013-02-16 22:42:00,
2013-02-16 14:47:00,76.3,35.8,29.47,North,0,0.0,0.0,23,0.00,,,0.00,meteohub,2013-02-16 22:47:00,
2013-02-16 14:52:00,76.8,37.2,29.47,East,90,0.0,0.0,24,0.00,,,0.00,meteohub,2013-02-16 22:52:00,
2013-02-16 14:57:00,77.5,35.8,29.47,East,90,0.0,0.0,22,0.00,,,0.00,meteohub,2013-02-16 22:57:00,
2013-02-16 15:02:00,77.9,36.0,29.46,SE,135,0.0,0.0,22,0.00,,,0.00,meteohub,2013-02-16 23:02:00,
2013-02-16 15:07:00,77.7,35.8,29.46,East,90,0.0,0.0,22,0.00,,,0.00,meteohub,2013-02-16 23:07:00,
2013-02-16 15:12:00,78.1,36.1,29.47,East,90,0.0,0.0,22,0.00,,,0.00,meteohub,2013-02-16 23:12:00,
2013-02-16 15:17:00,77.7,35.8,29.46,East,90,0.0,0.0,22,0.00,,,0.00,meteohub,2013-02-16 23:17:00,
2013-02-16 15:22:00,77.9,37.0,29.45,East,90,0.0,0.0,23,0.00,,,0.00,meteohub,2013-02-16 23:22:00,
2013-02-16 15:27:00,77.9,37.0,29.46,East,90,0.0,0.0,23,0.00,,,0.00,meteohub,2013-02-16 23:27:00,
2013-02-16 15:32:00,76.5,37.0,29.46,East,90,0.0,0.0,24,0.00,,,0.00,meteohub,2013-02-16 23:32:00,
2013-02-16 15:37:00,75.2,36.0,29.46,East,90,0.0,0.0,24,0.00,,,0.00,meteohub,2013-02-16 23:37:00,
2013-02-16 15:42:00,74.5,37.4,29.45,East,90,0.0,0.0,26,0.00,,,0.00,meteohub,2013-02-16 23:42:00,
2013-02-16 15:47:00,74.1,37.0,29.46,East,90,0.0,0.0,26,0.00,,,0.00,meteohub,2013-02-16 23:47:00,
2013-02-16 15:52:00,73.9,36.9,29.45,East,90,0.0,0.0,26,0.00,,,0.00,meteohub,2013-02-16 23:52:00,
2013-02-16 15:57:00,73.8,37.8,29.45,East,90,0.0,0.0,27,0.00,,,0.00,meteohub,2013-02-16 23:57:00,
2013-02-16 16:02:00,74.1,39.0,29.45,East,90,0.0,0.0,28,0.00,,,0.00,meteohub,2013-02-17 00:02:00,
2013-02-16 16:07:00,74.1,39.0,29.44,East,90,0.0,0.0,28,0.00,,,0.00,meteohub,2013-02-17 00:07:00,
2013-02-16 16:12:00,77.5,39.9,29.44,East,90,0.0,0.0,26,0.00,,,0.00,meteohub,2013-02-17 00:12:00,
2013-02-16 16:17:00,78.6,38.8,29.44,East,90,0.0,0.0,24,0.00,,,0.00,meteohub,2013-02-17 00:17:00,
2013-02-16 16:22:00,78.8,37.9,29.43,East,90,0.0,0.0,23,0.00,,,0.00,meteohub,2013-02-17 00:22:00,
2013-02-16 16:27:00,78.8,37.9,29.43,East,90,0.0,0.0,23,0.00,,,0.00,meteohub,2013-02-17 00:27:00,
2013-02-16 16:32:00,78.3,37.4,29.43,East,90,0.0,0.0,23,0.00,,,0.00,meteohub,2013-02-17 00:32:00,
2013-02-16 16:37:00,78.1,39.4,29.42,East,90,0.0,0.0,25,0.00,,,0.00,meteohub,2013-02-17 00:37:00,
2013-02-16 16:42:00,78.8,39.0,29.42,East,90,0.0,0.0,24,0.00,,,0.00,meteohub,2013-02-17 00:42:00,
2013-02-16 16:47:00,79.3,39.4,29.42,East,90,0.0,0.0,24,0.00,,,0.00,meteohub,2013-02-17 00:47:00,
2013-02-16 16:52:00,79.5,39.6,29.42,North,0,0.0,0.0,24,0.00,,,0.00,meteohub,2013-02-17 00:52:00,
2013-02-16 16:57:00,79.7,38.7,29.42,North,0,0.0,0.0,23,0.00,,,0.00,meteohub,2013-02-17 00:57:00,
2013-02-16 17:02:00,79.9,39.9,29.42,North,0,0.0,0.0,24,0.00,,,0.00,meteohub,2013-02-17 01:02:00,
2013-02-16 17:07:00,79.5,38.5,29.41,North,0,0.0,0.0,23,0.00,,,0.00,meteohub,2013-02-17 01:07:00,
2013-02-16 17:12:00,79.0,39.2,29.42,North,0,0.0,0.0,24,0.00,,,0.00,meteohub,2013-02-17 01:12:00,
2013-02-16 17:17:00,78.4,40.6,29.42,North,0,0.0,0.0,26,0.00,,,0.00,meteohub,2013-02-17 01:17:00,
2013-02-16 17:22:00,77.9,39.2,29.42,North,0,0.0,1.0,25,0.00,,,0.00,meteohub,2013-02-17 01:22:00,
2013-02-16 17:27:00,77.0,39.6,29.42,North,0,0.0,1.0,26,0.00,,,0.00,meteohub,2013-02-17 01:27:00,
2013-02-16 17:32:00,75.9,38.7,29.42,North,0,0.0,1.0,26,0.00,,,0.00,meteohub,2013-02-17 01:32:00,
2013-02-16 17:37:00,74.5,39.2,29.43,North,0,1.0,1.0,28,0.00,,,0.00,meteohub,2013-02-17 01:37:00,
2013-02-16 17:42:00,72.7,38.7,29.43,North,0,0.0,1.0,29,0.00,,,0.00,meteohub,2013-02-17 01:42:00,
2013-02-16 17:47:00,70.5,38.5,29.43,North,0,1.0,1.0,31,0.00,,,0.00,meteohub,2013-02-17 01:47:00,
2013-02-16 17:52:00,68.9,37.0,29.44,North,0,0.0,1.0,31,0.00,,,0.00,meteohub,2013-02-17 01:52:00,
2013-02-16 17:57:00,67.5,36.5,29.44,North,0,0.0,1.0,32,0.00,,,0.00,meteohub,2013-02-17 01:57:00,
2013-02-16 18:02:00,66.6,35.8,29.44,North,0,0.0,1.0,32,0.00,,,0.00,meteohub,2013-02-17 02:02:00,
2013-02-16 18:07:00,66.6,35.8,29.45,North,0,0.0,1.0,32,0.00,,,0.00,meteohub,2013-02-17 02:07:00,
2013-02-16 18:12:00,64.6,37.0,29.45,North,0,0.0,0.0,36,0.00,,,0.00,meteohub,2013-02-17 02:12:00,
2013-02-16 18:17:00,63.9,37.8,29.45,North,0,0.0,0.0,38,0.00,,,0.00,meteohub,2013-02-17 02:17:00,
2013-02-16 18:22:00,63.1,37.0,29.45,North,0,0.0,0.0,38,0.00,,,0.00,meteohub,2013-02-17 02:22:00,
2013-02-16 18:27:00,62.4,37.8,29.45,North,0,0.0,0.0,40,0.00,,,0.00,meteohub,2013-02-17 02:27:00,
2013-02-16 18:32:00,62.1,37.4,29.45,North,0,0.0,0.0,40,0.00,,,0.00,meteohub,2013-02-17 02:32:00,
2013-02-16 18:37:00,61.7,37.2,29.46,North,0,0.0,0.0,40,0.00,,,0.00,meteohub,2013-02-17 02:37:00,
2013-02-16 18:42:00,61.3,37.4,29.46,West,270,0.0,0.0,41,0.00,,,0.00,meteohub,2013-02-17 02:42:00,
2013-02-16 18:47:00,61.0,37.8,29.46,West,270,0.0,0.0,42,0.00,,,0.00,meteohub,2013-02-17 02:47:00,
2013-02-16 18:52:00,60.6,38.7,29.46,West,270,0.0,0.0,44,0.00,,,0.00,meteohub,2013-02-17 02:52:00,
2013-02-16 18:57:00,60.4,39.0,29.46,West,270,0.0,0.0,45,0.00,,,0.00,meteohub,2013-02-17 02:57:00,
2013-02-16 19:02:00,60.4,40.6,29.46,West,270,0.0,0.0,48,0.00,,,0.00,meteohub,2013-02-17 03:02:00,
2013-02-16 19:07:00,60.3,41.5,29.46,West,270,0.0,0.0,50,0.00,,,0.00,meteohub,2013-02-17 03:07:00,
2013-02-16 19:12:00,59.9,41.2,29.47,West,270,0.0,1.0,50,0.00,,,0.00,meteohub,2013-02-17 03:12:00,
2013-02-16 19:17:00,59.5,41.4,29.47,West,270,1.0,1.0,51,0.00,,,0.00,meteohub,2013-02-17 03:17:00,
2013-02-16 19:22:00,59.4,41.7,29.47,West,270,0.0,1.0,52,0.00,,,0.00,meteohub,2013-02-17 03:22:00,
2013-02-16 19:27:00,59.2,41.5,29.47,West,270,0.0,1.0,52,0.00,,,0.00,meteohub,2013-02-17 03:27:00,
2013-02-16 19:32:00,59.0,41.4,29.47,West,270,0.0,1.0,52,0.00,,,0.00,meteohub,2013-02-17 03:32:00,
2013-02-16 19:37:00,58.8,42.3,29.47,West,270,0.0,0.0,54,0.00,,,0.00,meteohub,2013-02-17 03:37:00,
2013-02-16 19:42:00,58.5,41.9,29.47,West,270,0.0,0.0,54,0.00,,,0.00,meteohub,2013-02-17 03:42:00,
2013-02-16 19:47:00,58.1,41.5,29.47,West,270,0.0,1.0,54,0.00,,,0.00,meteohub,2013-02-17 03:47:00,
2013-02-16 19:52:00,57.7,41.7,29.48,West,270,0.0,1.0,55,0.00,,,0.00,meteohub,2013-02-17 03:52:00,
2013-02-16 19:57:00,57.4,41.4,29.48,West,270,2.0,2.0,55,0.00,,,0.00,meteohub,2013-02-17 03:57:00,
2013-02-16 20:02:00,57.2,41.7,29.48,West,270,0.0,2.0,56,0.00,,,0.00,meteohub,2013-02-17 04:02:00,
2013-02-16 20:07:00,57.2,41.7,29.48,West,270,0.0,2.0,56,0.00,,,0.00,meteohub,2013-02-17 04:07:00,
2013-02-16 20:12:00,56.5,41.9,29.49,West,270,0.0,2.0,58,0.00,,,0.00,meteohub,2013-02-17 04:12:00,
2013-02-16 20:17:00,56.3,42.1,29.49,West,270,0.0,1.0,59,0.00,,,0.00,meteohub,2013-02-17 04:17:00,
2013-02-16 20:22:00,55.8,43.0,29.48,West,270,0.0,1.0,62,0.00,,,0.00,meteohub,2013-02-17 04:22:00,
2013-02-16 20:27:00,55.0,42.3,29.49,West,270,0.0,0.0,62,0.00,,,0.00,meteohub,2013-02-17 04:27:00,
2013-02-16 20:32:00,54.5,41.7,29.49,West,270,0.0,0.0,62,0.00,,,0.00,meteohub,2013-02-17 04:32:00,
2013-02-16 20:37:00,54.1,42.6,29.49,West,270,0.0,0.0,65,0.00,,,0.00,meteohub,2013-02-17 04:37:00,
2013-02-16 20:42:00,54.0,43.7,29.49,West,270,0.0,0.0,68,0.00,,,0.00,meteohub,2013-02-17 04:42:00,
2013-02-16 20:47:00,53.4,43.2,29.49,West,270,1.0,0.0,68,0.00,,,0.00,meteohub,2013-02-17 04:47:00,
2013-02-16 20:52:00,53.1,42.8,29.49,West,270,0.0,1.0,68,0.00,,,0.00,meteohub,2013-02-17 04:52:00,
2013-02-16 20:57:00,52.9,42.6,29.50,West,270,0.0,1.0,68,0.00,,,0.00,meteohub,2013-02-17 04:57:00,
2013-02-16 21:00:00,52.7,42.4,29.49,West,270,0.0,1.0,68,0.00,,,0.00,meteohub,2013-02-17 05:00:00,
2013-02-16 21:01:00,52.7,42.4,29.49,West,270,0.0,1.0,68,0.00,,,0.00,meteohub,2013-02-17 05:01:00,
2013-02-16 21:02:00,52.5,42.3,29.49,West,270,0.0,1.0,68,0.00,,,0.00,meteohub,2013-02-17 05:02:00,
2013-02-16 21:04:00,52.5,42.6,29.50,West,270,0.0,1.0,69,0.00,,,0.00,meteohub,2013-02-17 05:04:00,
2013-02-16 21:09:00,52.2,42.3,29.50,West,270,0.0,0.0,69,0.00,,,0.00,meteohub,2013-02-17 05:09:00,
2013-02-16 21:14:00,52.0,42.1,29.49,West,270,0.0,1.0,69,0.00,,,0.00,meteohub,2013-02-17 05:14:00,
2013-02-16 21:19:00,51.8,42.3,29.50,West,270,0.0,1.0,70,0.00,,,0.00,meteohub,2013-02-17 05:19:00,
2013-02-16 21:25:00,51.8,42.3,29.50,West,270,0.0,1.0,70,0.00,,,0.00,meteohub,2013-02-17 05:25:00,
2013-02-16 21:30:00,51.8,42.3,29.50,West,270,0.0,1.0,70,0.00,,,0.00,meteohub,2013-02-17 05:30:00,
2013-02-16 21:35:00,52.0,42.4,29.50,West,270,0.0,1.0,70,0.00,,,0.00,meteohub,2013-02-17 05:35:00,
2013-02-16 21:40:00,52.2,42.6,29.50,West,270,0.0,1.0,70,0.00,,,0.00,meteohub,2013-02-17 05:40:00,
2013-02-16 21:45:00,52.3,42.8,29.50,West,270,0.0,1.0,70,0.00,,,0.00,meteohub,2013-02-17 05:45:00,
2013-02-16 21:50:00,52.5,43.0,29.50,West,270,0.0,1.0,70,0.00,,,0.00,meteohub,2013-02-17 05:50:00,
2013-02-16 21:55:00,52.5,43.0,29.51,West,270,0.0,1.0,70,0.00,,,0.00,meteohub,2013-02-17 05:55:00,
2013-02-16 22:00:00,52.5,43.0,29.51,West,270,0.0,1.0,70,0.00,,,0.00,meteohub,2013-02-17 06:00:00,
2013-02-16 22:05:00,52.5,43.0,29.51,West,270,0.0,1.0,70,0.00,,,0.00,meteohub,2013-02-17 06:05:00,
2013-02-16 22:10:00,51.8,42.3,29.51,West,270,0.0,0.0,70,0.00,,,0.00,meteohub,2013-02-17 06:10:00,
2013-02-16 22:15:00,51.6,43.0,29.51,West,270,0.0,0.0,72,0.00,,,0.00,meteohub,2013-02-17 06:15:00,
2013-02-16 22:20:00,51.3,43.0,29.51,West,270,0.0,0.0,73,0.00,,,0.00,meteohub,2013-02-17 06:20:00,
2013-02-16 22:26:00,50.9,43.0,29.50,West,270,0.0,0.0,74,0.00,,,0.00,meteohub,2013-02-17 06:26:00,
2013-02-16 22:31:00,50.7,43.7,29.51,West,270,0.0,0.0,77,0.00,,,0.00,meteohub,2013-02-17 06:31:00,
2013-02-16 22:36:00,50.4,44.1,29.51,West,270,0.0,0.0,79,0.00,,,0.00,meteohub,2013-02-17 06:36:00,
2013-02-16 22:41:00,50.2,44.2,29.51,West,270,0.0,0.0,80,0.00,,,0.00,meteohub,2013-02-17 06:41:00,
2013-02-16 22:46:00,49.8,44.2,29.51,West,270,0.0,0.0,81,0.00,,,0.00,meteohub,2013-02-17 06:46:00,
2013-02-16 22:51:00,49.5,43.9,29.51,West,270,0.0,0.0,81,0.00,,,0.00,meteohub,2013-02-17 06:51:00,
2013-02-16 22:56:00,49.1,43.5,29.51,West,270,0.0,0.0,81,0.00,,,0.00,meteohub,2013-02-17 06:56:00,
2013-02-16 23:01:00,48.9,43.3,29.51,West,270,0.0,0.0,81,0.00,,,0.00,meteohub,2013-02-17 07:01:00,
2013-02-16 23:06:00,48.7,43.5,29.50,West,270,0.0,0.0,82,0.00,,,0.00,meteohub,2013-02-17 07:06:00,
2013-02-16 23:11:00,48.4,43.2,29.50,West,270,0.0,0.0,82,0.00,,,0.00,meteohub,2013-02-17 07:11:00,
2013-02-16 23:16:00,48.2,43.0,29.50,West,270,0.0,0.0,82,0.00,,,0.00,meteohub,2013-02-17 07:16:00,
2013-02-16 23:21:00,48.0,43.2,29.50,West,270,0.0,0.0,83,0.00,,,0.00,meteohub,2013-02-17 07:21:00,
2013-02-16 23:26:00,47.7,43.0,29.50,West,270,0.0,0.0,84,0.00,,,0.00,meteohub,2013-02-17 07:26:00,
2013-02-16 23:31:00,47.3,42.8,29.50,West,270,0.0,0.0,84,0.00,,,0.00,meteohub,2013-02-17 07:31:00,
2013-02-16 23:37:00,46.9,42.4,29.50,West,270,0.0,0.0,84,0.00,,,0.00,meteohub,2013-02-17 07:37:00,
2013-02-16 23:42:00,46.8,42.3,29.50,West,270,0.0,0.0,84,0.00,,,0.00,meteohub,2013-02-17 07:42:00,
2013-02-16 23:47:00,46.4,41.9,29.50,West,270,0.0,0.0,84,0.00,,,0.00,meteohub,2013-02-17 07:47:00,
2013-02-16 23:52:00,46.2,41.7,29.50,West,270,0.0,0.0,84,0.00,,,0.00,meteohub,2013-02-17 07:52:00,
2013-02-16 23:57:00,46.0,41.5,29.50,West,270,0.0,0.0,84,0.00,,,0.00,meteohub,2013-02-17 07:57:00,